カタログに戻る

ATLAS AGENA B DEB

LostPO
NORAD 3132·DEBRIS·🇺🇸 United States

打ち上げ Jul 19, 1963 から Vandenberg Space Force Base

Loading…

次のパス (今後24時間)

TLE

古いSource: Space-Track

元期: Sep 30, 2025, 19:36 UTC

1 03132U 63030G   25273.81707413  .00000026  00000-0  11967-1 0  9994
2 03132  88.4264 226.0125 0095593 317.5355  41.8130  8.57861568437624

AllMySatでATLAS AGENA B DEBをリアルタイム追跡

Download on the App Store